When you browse on this site, cookies collect data to enhance your experience and personalize the content and advertising you see.
Visit our Privacy Policy to learn more. By continuing to use the site, you agree to this use of cookies and data.
  • In Schweiz
  • Länderverzeichnis
  • Für 7 Tage
  • Wassertemperatur
  • Wetterkarte
  • Widgets
  • user-avatar
    Anmelden

    Stündliche Wetter Paris

    Heute, 3 Juni, Mittwoch

    Zeit Temperatur Niederschläge Wind Luftdruck Luftfeuchtigkeit
    00:00 +18°C° 0 mm 2 m/S 754 mmHg 67%
    01:00 +19°C° 0.1 mm 1 m/S 753 mmHg 69%
    02:00 +18°C° 0.1 mm 1 m/S 753 mmHg 70%
    03:00 +18°C° 0.1 mm 1 m/S 752 mmHg 71%
    04:00 +18°C° 0.2 mm 1 m/S 752 mmHg 71%
    05:00 +17°C° 0.2 mm 2 m/S 752 mmHg 71%
    06:00 +17°C° 0.2 mm 2 m/S 751 mmHg 71%
    07:00 +19°C° 0.1 mm 2 m/S 751 mmHg 65%
    08:00 +20°C° 0.1 mm 2 m/S 751 mmHg 60%
    09:00 +23°C° 0.1 mm 2 m/S 750 mmHg 55%
    10:00 +24°C° 0 mm 2 m/S 750 mmHg 53%
    11:00 +25°C° 0 mm 2 m/S 749 mmHg 50%
    12:00 +26°C° 0 mm 2 m/S 749 mmHg 48%
    13:00 +25°C° 0.3 mm 2 m/S 748 mmHg 50%
    14:00 +25°C° 0.3 mm 3 m/S 748 mmHg 53%
    15:00 +25°C° 0.3 mm 3 m/S 747 mmHg 56%
    16:00 +24°C° 0.7 mm 3 m/S 747 mmHg 60%
    17:00 +22°C° 0.7 mm 3 m/S 747 mmHg 64%
    18:00 +21°C° 0.7 mm 3 m/S 746 mmHg 69%
    19:00 +20°C° 0.3 mm 3 m/S 747 mmHg 69%
    20:00 +19°C° 0.3 mm 3 m/S 747 mmHg 69%
    21:00 +17°C° 0.3 mm 3 m/S 747 mmHg 69%
    22:00 +16°C° 0 mm 3 m/S 747 mmHg 71%
    23:00 +14°C° 0 mm 3 m/S 746 mmHg 74%

    Morgen, 4 Juni, Donnerstag

    Zeit Temperatur Niederschläge Wind Luftdruck Luftfeuchtigkeit
    00:00 +13°C° 0 mm 3 m/S 746 mmHg 76%
    01:00 +13°C° 0 mm 3 m/S 746 mmHg 79%
    02:00 +12°C° 0 mm 3 m/S 746 mmHg 81%
    03:00 +12°C° 0 mm 3 m/S 746 mmHg 84%
    04:00 +12°C° 0 mm 3 m/S 746 mmHg 84%
    05:00 +12°C° 0 mm 3 m/S 746 mmHg 84%
    06:00 +13°C° 0 mm 3 m/S 746 mmHg 83%
    07:00 +13°C° 0 mm 3 m/S 746 mmHg 82%
    08:00 +13°C° 0 mm 3 m/S 746 mmHg 80%
    09:00 +14°C° 0 mm 3 m/S 746 mmHg 78%
    10:00 +14°C° 0.1 mm 3 m/S 746 mmHg 75%
    11:00 +16°C° 0.1 mm 3 m/S 746 mmHg 72%
    12:00 +16°C° 0.1 mm 3 m/S 746 mmHg 70%
    13:00 +16°C° 0.2 mm 3 m/S 746 mmHg 70%
    14:00 +15°C° 0.2 mm 4 m/S 746 mmHg 70%
    15:00 +15°C° 0.2 mm 4 m/S 746 mmHg 71%
    16:00 +15°C° 0.1 mm 4 m/S 746 mmHg 70%
    17:00 +15°C° 0.1 mm 4 m/S 746 mmHg 69%
    18:00 +16°C° 0.1 mm 3 m/S 746 mmHg 68%
    19:00 +14°C° 0 mm 3 m/S 747 mmHg 71%
    20:00 +13°C° 0 mm 3 m/S 747 mmHg 75%
    21:00 +13°C° 0 mm 2 m/S 748 mmHg 78%
    22:00 +12°C° 0 mm 3 m/S 748 mmHg 80%
    23:00 +11°C° 0 mm 3 m/S 748 mmHg 82%

    übermorgen, 5 Juni, Freitag

    Zeit Temperatur Niederschläge Wind Luftdruck Luftfeuchtigkeit
    00:00 +11°C° 0 mm 3 m/S 747 mmHg 83%
    01:00 +10°C° 0 mm 3 m/S 747 mmHg 84%
    02:00 +10°C° 0 mm 3 m/S 747 mmHg 84%
    03:00 +10°C° 0 mm 4 m/S 747 mmHg 85%
    04:00 +10°C° 0 mm 4 m/S 747 mmHg 83%
    05:00 +11°C° 0 mm 4 m/S 747 mmHg 81%
    06:00 +12°C° 0 mm 5 m/S 746 mmHg 80%
    07:00 +12°C° 0.4 mm 5 m/S 746 mmHg 81%
    08:00 +11°C° 0.4 mm 6 m/S 746 mmHg 83%
    09:00 +13°C° 0.4 mm 6 m/S 746 mmHg 84%
    10:00 +13°C° 0.5 mm 6 m/S 746 mmHg 80%
    11:00 +14°C° 0.5 mm 6 m/S 746 mmHg 76%
    12:00 +15°C° 0.5 mm 6 m/S 746 mmHg 72%
    13:00 +16°C° 0.2 mm 7 m/S 746 mmHg 68%
    14:00 +16°C° 0.2 mm 7 m/S 746 mmHg 65%
    15:00 +17°C° 0.2 mm 7 m/S 746 mmHg 61%
    16:00 +16°C° 0.1 mm 6 m/S 746 mmHg 66%
    17:00 +15°C° 0.1 mm 6 m/S 746 mmHg 71%
    18:00 +14°C° 0.1 mm 5 m/S 746 mmHg 77%
    19:00 +13°C° 0.1 mm 4 m/S 747 mmHg 78%
    20:00 +13°C° 0.1 mm 4 m/S 747 mmHg 80%
    21:00 +13°C° 0.1 mm 3 m/S 748 mmHg 82%
    22:00 +13°C° 0.3 mm 3 m/S 747 mmHg 84%
    23:00 +13°C° 0.3 mm 3 m/S 747 mmHg 86%

    6 Juni, Samstag

    Zeit Temperatur Niederschläge Wind Luftdruck Luftfeuchtigkeit
    00:00 +13°C° 0.3 mm 3 m/S 747 mmHg 88%
    01:00 +12°C° 0.1 mm 3 m/S 747 mmHg 88%
    02:00 +12°C° 0.1 mm 3 m/S 747 mmHg 87%
    03:00 +12°C° 0.1 mm 3 m/S 747 mmHg 87%
    04:00 +12°C° 0.1 mm 3 m/S 747 mmHg 85%
    05:00 +12°C° 0.1 mm 3 m/S 748 mmHg 82%
    06:00 +12°C° 0.1 mm 3 m/S 748 mmHg 80%
    07:00 +13°C° 0 mm 3 m/S 748 mmHg 75%
    08:00 +14°C° 0 mm 4 m/S 748 mmHg 70%
    09:00 +15°C° 0 mm 4 m/S 748 mmHg 65%
    10:00 +15°C° 0.1 mm 4 m/S 748 mmHg 61%
    11:00 +16°C° 0.1 mm 5 m/S 748 mmHg 57%
    12:00 +17°C° 0.1 mm 5 m/S 748 mmHg 54%
    13:00 +17°C° 0.1 mm 5 m/S 748 mmHg 52%
    14:00 +17°C° 0.1 mm 5 m/S 748 mmHg 51%
    15:00 +19°C° 0.1 mm 5 m/S 748 mmHg 49%
    16:00 +17°C° 0 mm 5 m/S 748 mmHg 51%
    17:00 +16°C° 0 mm 5 m/S 749 mmHg 52%
    18:00 +15°C° 0 mm 5 m/S 749 mmHg 53%
    19:00 +14°C° 0 mm 4 m/S 749 mmHg 56%
    20:00 +12°C° 0 mm 3 m/S 750 mmHg 59%
    21:00 +11°C° 0 mm 3 m/S 750 mmHg 62%
    22:00 +10°C° 0 mm 3 m/S 750 mmHg 63%
    23:00 +10°C° 0 mm 3 m/S 750 mmHg 63%

    7 Juni, Sonntag

    Zeit Temperatur Niederschläge Wind Luftdruck Luftfeuchtigkeit
    00:00 +10°C° 0 mm 3 m/S 750 mmHg 63%
    01:00 +9°C° 0 mm 3 m/S 750 mmHg 63%
    02:00 +9°C° 0 mm 3 m/S 750 mmHg 64%
    03:00 +9°C° 0 mm 3 m/S 750 mmHg 64%
    04:00 +10°C° 0 mm 3 m/S 750 mmHg 65%
    05:00 +10°C° 0 mm 4 m/S 751 mmHg 66%
    06:00 +10°C° 0 mm 4 m/S 751 mmHg 67%
    07:00 +12°C° 0 mm 5 m/S 751 mmHg 62%
    08:00 +13°C° 0 mm 5 m/S 751 mmHg 57%
    09:00 +15°C° 0 mm 5 m/S 751 mmHg 53%
    10:00 +15°C° 0.1 mm 6 m/S 752 mmHg 51%
    11:00 +16°C° 0.1 mm 6 m/S 752 mmHg 49%
    12:00 +17°C° 0.1 mm 6 m/S 752 mmHg 47%
    13:00 +17°C° 0.2 mm 6 m/S 752 mmHg 50%
    14:00 +17°C° 0.2 mm 6 m/S 752 mmHg 53%
    15:00 +16°C° 0.2 mm 6 m/S 751 mmHg 56%
    16:00 +16°C° 0.1 mm 5 m/S 752 mmHg 59%
    17:00 +16°C° 0.1 mm 5 m/S 752 mmHg 61%
    18:00 +15°C° 0.1 mm 5 m/S 752 mmHg 63%
    19:00 +14°C° 0.1 mm 4 m/S 752 mmHg 67%
    20:00 +13°C° 0.1 mm 4 m/S 752 mmHg 72%
    21:00 +12°C° 0.1 mm 4 m/S 752 mmHg 76%
    22:00 +12°C° 0.1 mm 4 m/S 752 mmHg 78%
    23:00 +12°C° 0.1 mm 4 m/S 752 mmHg 81%

    8 Juni, Montag

    Zeit Temperatur Niederschläge Wind Luftdruck Luftfeuchtigkeit
    00:00 +10°C° 0.1 mm 5 m/S 752 mmHg 83%
    01:00 +10°C° 0 mm 5 m/S 752 mmHg 85%
    02:00 +10°C° 0 mm 5 m/S 752 mmHg 86%
    03:00 +9°C° 0 mm 5 m/S 751 mmHg 88%
    04:00 +10°C° 0 mm 5 m/S 752 mmHg 87%
    05:00 +10°C° 0 mm 5 m/S 752 mmHg 86%
    06:00 +10°C° 0 mm 5 m/S 752 mmHg 85%
    07:00 +12°C° 0.1 mm 5 m/S 752 mmHg 79%
    08:00 +14°C° 0.1 mm 5 m/S 753 mmHg 73%
    09:00 +15°C° 0.1 mm 5 m/S 753 mmHg 68%
    10:00 +15°C° 0.4 mm 5 m/S 753 mmHg 65%
    11:00 +16°C° 0.4 mm 5 m/S 753 mmHg 63%
    12:00 +16°C° 0.4 mm 5 m/S 753 mmHg 61%
    13:00 +16°C° 0.3 mm 5 m/S 753 mmHg 64%
    14:00 +17°C° 0.3 mm 4 m/S 753 mmHg 66%
    15:00 +17°C° 0.3 mm 4 m/S 753 mmHg 69%
    16:00 +17°C° 0.7 mm 4 m/S 753 mmHg 71%
    17:00 +17°C° 0.7 mm 4 m/S 752 mmHg 74%
    18:00 +17°C° 0.7 mm 4 m/S 752 mmHg 76%
    19:00 +16°C° 0.2 mm 3 m/S 753 mmHg 78%
    20:00 +14°C° 0.2 mm 3 m/S 753 mmHg 80%
    21:00 +13°C° 0.2 mm 3 m/S 753 mmHg 82%
    22:00 +13°C° 0 mm 3 m/S 754 mmHg 83%
    23:00 +12°C° 0 mm 3 m/S 754 mmHg 84%
    Mehr zeigen